STARLINK-35362, 65888

Orbit data source: Space-Track

STARLINK-35362, 65888 is a payload satellite owned by SpaceX/Seattle (US) in LEO that was launched on Tue, 07 Oct 2025 UTC via an FALCON 9 launch vehicle from the Air Force Eastern Test Range (AFETR). Payload-class satellites include a variety of spacecraft equipped with specific instruments for various scientific and technological missions. These include communications satellites like Starlink; space stations such as the ISS; scientific satellites like the Hubble; Earth observation satellites from companies like Planet Labs, Umbra, and HawkEye 360; GPS; miniature CubeSats for education and research; and military/defense satellites.

Loading next visibility...
Identifier
65888, 2025-224G
Orbit
LEO
Country
Flag of USUS
Related business
Manufacturer
SpaceX/Seattle
Mission
Operational Commercial Communications
Bus & Motor
STARLINK V2MO, Unknown motor
Mass
575 kg wet, ~530 kg dry
Launch date (UTC)
2025-10-07 (8 months ago)
Launch vehicle
FALCON 9
Launch site
Air Force Eastern Test Range (AFETR)
Object type
Payload
Rocket body
Debris
Shape & HBR
Box + 2 Pan, 17.7 m
Radar Cross Section
36.964 m², Large (>1 m²)

Expand to show TLE details & history
Last TLE update: 11 hours ago

TLE from 11 hours ago
0 STARLINK-35362
1 65888U 25224G   26171.44071514  .00013487  00000-0  46679-3 0  9991
2 65888  53.1577 254.2517 0000989  72.6268 287.4841 15.30190178 40551
Epoch: 2026-06-20T10:34Z
TLE epoch observation values (Epoch: 2026-06-20T10:34:37.788Z)
Latitude
0.00001°
Longitude
-173.06104°
Altitude
475.94 km
Speed
7.629 km/s
True Right ascension
16h 57m 00s
True Declination
0° 00' 00"
Sunlit
Object was in full shadow at epoch
Visualization orbit readout
Latitude
Unknown
Longitude
Unknown
Altitude
Unknown
Speed
Unknown
Apparent Right ascension
Unknown
Apparent Declination
Unknown
Sunlit
N/A
Visualization observer readout
Local Sidereal Time
08:41:46
Azimuth
Unknown
Elevation
Unknown
Doppler factor
Unknown
Orbital elements
Apogee altitude
476.179 km
Perigee altitude
474.823 km
Semi-major axis
6,853.638 km
Eccentricity
0.0001
Inclination
53.1577°
RAAN
254.2517°
Arg. of periapsis
72.6268°
True anomaly
287.47329°
Mean anomaly
287.4841°
Eccentric anomaly
287.4787°
Mean motion
3.82526 °/min
Orbital period
94.11 mins
BSTAR
0.00046679
Loading maneuver chart data...
Computing Atmospheric mass density...
Loading historical data...
Loading historical data...
Loading historical data...
Loading historical data...
Loading historical data...
Loading historical data...
Loading historical data...

Documentation

Showing up to 5 results
|